Location: Unspecified
(0.0000°N, 0.0000°E)
Time: 21:57:24
(UTC+00:00)

Tiangong 1 - Pass Details

Date: 26 May 2017
Orbit: 323 x 350 km, 42.8° (Epoch: 24 May)

Event Time Altitude Azimuth Distance (km) Brightness Sun altitude
Rises 18:21:37 0° 294° (WNW) 2,115 7.7 -5.7°
Reaches altitude 10° 18:23:56 10° 276° (W) 1,274 5.2 -6.2°
Maximum altitude 18:26:10 20° 225° (SW) 844 3.1 -6.8°
Drops below altitude 10° 18:28:22 10° 174° (S) 1,267 3.4 -7.3°
Enters shadow 18:30:03 - 159° (SSE) 1,859 4.1 -7.7°
